Orbital Elements at Epoch 2459000.5 (2020-May-31.0) TDB
Reference: JPL 27 (heliocentric ecliptic J2000)
Element | Value | Uncertainty (1-sigma) | Units |
e | .1065738080159039 | 3.3712e-08 | |
a | 2.309406011480345 | 9.8145e-09 | au |
q | 2.063283818582064 | 8.0099e-08 | au |
i | 7.111490906936528 | 3.8084e-06 | deg |
node | 110.8794828365812 | 3.275e-05 | deg |
peri | 36.89719015969359 | 3.8626e-05 | deg |
M | 328.3996256849907 | 2.0141e-05 | deg |
tp | 2459113.022297487691 (2020-Sep-20.52229749) | 7.1893e-05 | TDB |
period | 1281.884407183379 3.51 | 8.1716e-06 2.237e-08 | d yr |
n | .2808365543590705 | 1.7902e-09 | deg/d |
Q | 2.555528204378625 | 1.086e-08 | au |
|
| | Orbit Determination Parameters
Additional Information
|